Temp
80 83 82 82 82 83 83 82 83 83 82 82 83 83 83 83 83 83 82 83 83 83 83 84 84 84 83 83 83 83 83 83 83 83 83 82 82 82 82 83 85 89 82
85 85 81 82 82 83 83 82 82 83 83 82 83 83 83 83 83 83 83 83 83 83 84 84 83 83 83 83 83 83 83 82 82 83 84 84 83 82 82 83 83 85 82
86 86 85 82 82 82 82 82 82 82 81 83 83 83 83 83 83 84 84 84 84 84 84 84 84 84 84 83 83 83 83 82 82 83 84 90 88 83 83 83 82 82 82
87 88 87 81 82 82 82 82 82 83 83 83 83 83 83 83 83 83 84 84 84 84 84 84 84 84 84 83 83 83 82 82 81 83 88 89 88 82 82 82 82 82 82
86 87 86 82 82 82 82 82 82 82 83 82 83 83 83 83 83 84 84 84 84 83 83 84 83 83 83 83 83 83 82 82 81 85 87 86 88 84 82 82 83 82 82
86 88 84 82 82 82 82 83 82 82 83 82 83 83 83 83 84 84 84 84 84 84 84 84 85 85 84 84 83 83 82 81 82 86 86 85 85 82 82 82 82 81 81
86 88 88 82 82 83 82 82 83 83 83 83 82 83 83 84 83 84 84 84 84 84 84 84 85 84 84 84 83 82 81 81 84 84 85 86 85 81 82 82 81 81 81
86 88 87 83 83 83 82 81 83 82 83 83 83 83 82 83 84 84 85 84 84 84 84 84 84 84 84 83 82 82 82 82 84 84 84 87 81 82 82 81 81 81 81
87 87 87 87 85 83 83 82 82 83 83 83 83 82 84 83 84 84 84 85 85 85 84 84 84 84 84 83 83 82 81 80 84 85 87 88 80 82 82 81 81 81 81
86 87 85 86 87 85 86 83 83 83 83 83 83 84 83 84 84 83 83 84 84 84 84 84 83 83 83 83 83 82 82 81 87 86 88 87 80 82 81 81 81 80 80
82 83 84 86 84 83 84 84 84 83 83 82 82 81 83 86 88 89 84 84 84 84 84 83 84 84 82 83 83 83 81 89 89 88 89 79 80 82 81 81 80 80 80
80 82 84 85 85 86 86 83 83 85 86 85 84 84 86 86 86 87 85 84 83 83 84 83 84 83 85 90 90 85 90 87 89 89 89 79 80 82 81 81 80 80 80
82 82 84 82 83 85 82 84 85 86 86 85 83 85 85 86 86 87 86 88 87 83 88 88 89 90 87 89 90 91 89 88 90 90 85 79 80 81 82 81 81 81 81
81 82 83 83 81 83 82 85 85 85 86 86 85 84 84 86 85 84 86 86 85 87 84 86 89 86 86 86 88 89 89 90 91 91 86 79 80 81 82 82 82 81 81
81 82 83 82 81 81 82 84 84 84 86 86 86 85 86 86 84 85 84 86 85 87 87 86 86 87 86 89 90 89 89 89 89 91 91 79 80 80 81 82 82 82 82
82 82 83 82 81 82 82 81 83 85 86 86 86 86 84 86 84 86 85 86 85 88 87 86 86 87 89 90 88 88 90 90 88 88 92 90 79 80 80 81 82 82 82
83 83 82 82 83 82 82 83 84 86 87 87 86 84 84 85 83 82 85 85 86 86 85 87 88 89 91 92 89 91 92 90 92 89 91 92 92 80 80 81 81 81 82
84 81 82 86 84 83 83 83 85 86 87 86 86 86 85 84 84 84 86 86 86 87 88 88 89 89 90 90 90 91 91 91 90 90 91 91 92 94 86 80 80 81 81
84 82 82 84 83 83 82 84 85 83 86 87 87 87 84 84 84 86 87 86 85 87 88 89 88 87 89 90 92 92 91 91 91 95 91 90 92 92 93 85 79 79 81
84 83 83 84 82 82 83 82 84 86 86 86 86 87 84 85 85 85 86 85 86 89 88 88 85 88 88 87 92 92 92 92 92 93 94 95 94 92 94 90 91 93 81
84 82 82 82 81 82 82 82 83 84 84 85 86 84 84 85 85 84 87 86 87 86 85 85 88 85 89 87 89 92 91 92 93 94 95 96 93 95 93 94 93 94 93
83 82 81 82 81 81 84 82 85 83 85 87 85 85 85 85 84 86 84 86 85 87 84 84 84 88 87 86 85 86 85 90 94 95 94 95 93 95 95 93 92 90 91
83 82 81 81 81 81 82 82 82 83 84 84 85 85 83 85 86 84 84 86 85 86 87 85 85 84 86 86 84 85 84 82 86 92 91 94 91 95 95 94 94 93 92
84 84 83 82 81 81 81 83 80 83 80 85 84 83 83 86 86 87 85 84 84 87 84 86 88 85 86 85 87 87 84 83 84 86 93 93 93 95 93 95 97 96 93
85 84 84 82 81 81 81 83 82 82 85 84 84 81 83 82 85 86 84 84 84 87 84 84 85 83 87 86 86 87 85 87 84 85 85 88 94 94 94 94 95 96 95
86 84 83 80 79 81 81 81 82 82 82 82 83 84 85 86 87 85 85 84 83 84 84 86 84 84 85 85 87 87 87 86 85 86 86 86 86 91 93 93 93 95 96
MSLP
1017.91 1017.77 1017.86 1017.95 1017.95 1017.91 1017.96 1018.00 1017.96 1018.04 1018.18 1018.17 1018.34 1018.42 1018.34 1018.32 1018.34 1018.49 1018.52 1018.62 1018.69 1018.88 1018.94 1018.96 1018.94 1018.94 1019.18 1019.27 1019.36 1019.38 1019.35 1019.29 1019.31 1019.36 1019.43 1019.53 1019.59 1019.64 1019.60 1019.42 1019.00 1019.18 1019.64
1017.55 1017.94 1018.18 1018.12 1018.22 1018.26 1018.37 1018.34 1018.31 1018.42 1018.48 1018.69 1018.91 1018.68 1018.65 1018.66 1018.68 1018.82 1018.86 1018.86 1018.96 1019.08 1019.13 1019.22 1019.32 1019.37 1019.55 1019.66 1019.75 1019.72 1019.69 1019.76 1019.79 1019.76 1019.67 1019.76 1019.90 1019.89 1019.79 1019.71 1019.68 1019.95 1020.04
1017.57 1017.94 1018.26 1018.36 1018.30 1018.43 1018.49 1018.60 1018.70 1018.91 1019.00 1019.01 1018.97 1018.95 1018.98 1019.07 1019.15 1019.07 1019.10 1019.19 1019.23 1019.36 1019.48 1019.56 1019.63 1019.76 1019.85 1019.94 1020.02 1020.09 1020.12 1020.19 1020.18 1020.07 1019.90 1019.75 1019.95 1020.11 1020.04 1020.14 1020.37 1020.36 1020.33
1017.64 1017.90 1018.30 1018.69 1018.72 1018.80 1018.92 1019.13 1019.22 1019.28 1019.29 1019.27 1019.22 1019.21 1019.35 1019.46 1019.55 1019.48 1019.44 1019.58 1019.68 1019.70 1019.75 1019.87 1019.95 1020.15 1020.21 1020.28 1020.34 1020.40 1020.43 1020.52 1020.50 1020.40 1020.06 1020.01 1020.24 1020.54 1020.60 1020.68 1020.70 1020.64 1020.69
1017.95 1018.15 1018.52 1018.79 1018.93 1019.09 1019.25 1019.34 1019.50 1019.50 1019.53 1019.56 1019.52 1019.53 1019.64 1019.77 1019.87 1019.87 1019.84 1019.97 1020.04 1020.12 1020.18 1020.17 1020.32 1020.50 1020.42 1020.63 1020.67 1020.77 1020.79 1020.88 1020.87 1020.61 1020.55 1020.58 1020.34 1020.96 1021.02 1021.01 1020.98 1021.09 1021.15
1018.11 1018.30 1018.82 1019.00 1019.09 1019.26 1019.38 1019.44 1019.57 1019.59 1019.66 1019.76 1019.75 1019.88 1020.00 1020.06 1020.08 1020.09 1020.12 1020.34 1020.40 1020.47 1020.54 1020.56 1020.56 1020.57 1020.73 1020.78 1020.85 1021.00 1021.08 1021.18 1021.07 1020.98 1020.91 1020.99 1021.03 1021.20 1021.32 1021.40 1021.51 1021.56 1021.61
1018.24 1018.44 1018.63 1019.10 1019.25 1019.26 1019.45 1019.63 1019.68 1019.80 1019.92 1019.90 1019.97 1020.00 1020.12 1020.04 1020.46 1020.47 1020.48 1020.63 1020.71 1020.74 1020.85 1020.92 1020.91 1020.93 1020.98 1021.04 1021.12 1021.27 1021.36 1021.47 1021.30 1021.28 1021.22 1021.11 1021.40 1021.57 1021.72 1021.84 1021.89 1021.88 1021.94
1018.26 1018.44 1018.79 1019.17 1019.34 1019.40 1019.70 1019.67 1019.83 1019.90 1019.96 1020.10 1020.22 1020.30 1020.16 1020.34 1020.56 1020.85 1020.74 1020.92 1020.98 1021.12 1021.20 1021.19 1021.22 1021.27 1021.31 1021.36 1021.44 1021.56 1021.62 1021.60 1021.51 1021.50 1021.54 1021.32 1021.92 1021.98 1022.11 1022.13 1022.11 1022.10 1022.15
1018.40 1018.55 1018.87 1019.08 1019.44 1019.69 1019.94 1020.14 1020.14 1020.10 1020.20 1020.34 1020.38 1020.49 1020.67 1020.73 1020.91 1021.08 1021.05 1021.21 1021.29 1021.38 1021.42 1021.48 1021.54 1021.50 1021.51 1021.57 1021.68 1021.75 1021.83 1021.93 1021.74 1021.76 1021.55 1021.51 1022.24 1022.27 1022.36 1022.38 1022.40 1022.41 1022.38
1018.62 1018.80 1019.00 1019.28 1019.56 1019.84 1020.03 1020.25 1020.29 1020.40 1020.52 1020.55 1020.70 1020.82 1020.92 1020.94 1021.16 1021.44 1021.46 1021.58 1021.55 1021.63 1021.65 1021.76 1021.78 1021.75 1021.68 1021.74 1021.85 1021.94 1022.04 1022.14 1021.84 1021.91 1021.93 1022.05 1022.38 1022.44 1022.54 1022.63 1022.68 1022.67 1022.68
1019.13 1019.27 1019.35 1019.41 1019.82 1020.13 1020.30 1020.49 1020.57 1020.75 1020.80 1020.92 1021.09 1021.32 1021.18 1021.14 1021.20 1021.27 1021.75 1021.83 1021.86 1021.90 1021.87 1021.94 1021.96 1021.94 1021.93 1021.89 1022.00 1022.06 1022.14 1021.82 1021.86 1022.00 1022.06 1022.65 1022.64 1022.63 1022.71 1022.82 1022.82 1022.82 1022.83
1019.16 1019.48 1019.45 1019.70 1019.92 1020.07 1020.34 1020.72 1020.83 1020.92 1021.01 1021.19 1021.41 1021.40 1021.30 1021.43 1021.54 1021.61 1021.89 1022.03 1022.16 1022.16 1022.05 1022.05 1022.06 1022.06 1022.00 1021.77 1021.78 1022.03 1021.81 1022.04 1022.06 1022.12 1022.26 1022.80 1022.77 1022.75 1022.81 1022.85 1022.87 1022.90 1022.88
1019.22 1019.53 1019.74 1019.99 1020.30 1020.26 1020.59 1020.70 1020.79 1021.04 1021.24 1021.50 1021.62 1021.58 1021.70 1021.68 1021.88 1021.97 1022.10 1022.08 1022.09 1022.32 1022.02 1022.03 1021.93 1021.91 1021.94 1021.82 1021.80 1021.84 1022.04 1022.14 1022.08 1022.23 1022.53 1022.85 1022.84 1022.84 1022.84 1022.86 1022.90 1022.91 1022.80
1019.31 1019.62 1019.90 1020.14 1020.47 1020.62 1020.78 1020.73 1021.01 1021.15 1021.34 1021.46 1021.67 1021.81 1021.81 1021.77 1021.98 1022.18 1022.19 1022.40 1022.39 1022.30 1022.32 1022.28 1022.03 1022.12 1021.97 1021.87 1021.75 1021.80 1022.00 1022.07 1022.08 1022.19 1022.48 1022.84 1022.88 1022.91 1022.88 1022.85 1022.85 1022.80 1022.70
1019.30 1019.64 1019.98 1020.33 1020.70 1020.85 1021.00 1021.08 1021.19 1021.39 1021.39 1021.60 1021.75 1021.97 1021.96 1022.00 1022.24 1022.31 1022.51 1022.45 1022.53 1022.43 1022.36 1022.34 1022.18 1021.97 1021.99 1021.76 1021.68 1021.82 1021.94 1022.06 1022.13 1022.15 1022.24 1022.74 1022.81 1022.90 1022.90 1022.85 1022.76 1022.70 1022.58
1019.21 1019.62 1020.05 1020.40 1020.78 1020.99 1021.05 1021.35 1021.38 1021.47 1021.60 1021.74 1021.86 1022.04 1022.27 1022.21 1022.39 1022.39 1022.46 1022.51 1022.55 1022.46 1022.50 1022.49 1022.29 1021.99 1021.85 1021.68 1021.78 1021.85 1021.91 1021.97 1022.13 1022.18 1022.13 1022.29 1022.76 1022.82 1022.84 1022.80 1022.74 1022.63 1022.44
1019.16 1019.64 1020.04 1020.42 1020.68 1020.96 1021.10 1021.38 1021.44 1021.44 1021.52 1021.72 1021.98 1022.22 1022.34 1022.38 1022.50 1022.57 1022.45 1022.46 1022.51 1022.66 1022.57 1022.39 1022.15 1021.99 1021.72 1021.66 1021.78 1021.78 1021.76 1021.86 1021.81 1022.00 1022.04 1022.11 1022.17 1022.64 1022.70 1022.66 1022.60 1022.47 1022.28
1019.10 1019.66 1020.05 1020.02 1020.47 1020.83 1021.10 1021.34 1021.42 1021.59 1021.58 1021.76 1022.06 1022.20 1022.37 1022.46 1022.56 1022.54 1022.54 1022.53 1022.56 1022.47 1022.26 1022.08 1021.94 1021.92 1021.91 1021.83 1021.77 1021.69 1021.67 1021.76 1021.80 1021.90 1021.95 1022.04 1022.04 1021.96 1022.21 1022.39 1022.36 1022.22 1022.05
1019.13 1019.62 1020.01 1020.27 1020.54 1020.78 1021.18 1021.36 1021.50 1021.75 1021.67 1021.78 1021.95 1022.16 1022.38 1022.46 1022.56 1022.51 1022.46 1022.51 1022.68 1022.51 1022.31 1022.09 1022.05 1022.05 1021.86 1021.81 1021.68 1021.64 1021.47 1021.44 1021.56 1021.45 1021.77 1021.88 1021.86 1021.90 1021.78 1021.87 1022.06 1021.94 1021.82
1019.06 1019.61 1019.98 1020.30 1020.57 1020.86 1021.11 1021.49 1021.62 1021.68 1021.80 1021.95 1022.04 1022.08 1022.41 1022.53 1022.60 1022.50 1022.52 1022.63 1022.64 1022.34 1022.39 1022.32 1022.36 1022.13 1022.08 1021.99 1021.56 1021.40 1021.46 1021.31 1021.38 1021.35 1021.36 1021.48 1021.60 1021.64 1021.50 1021.66 1021.48 1021.18 1021.47
1018.83 1019.43 1019.89 1020.29 1020.66 1020.91 1021.17 1021.27 1021.50 1021.50 1021.76 1021.90 1022.08 1022.30 1022.48 1022.56 1022.57 1022.51 1022.51 1022.68 1022.65 1022.58 1022.63 1022.50 1022.50 1022.39 1022.08 1022.15 1021.62 1021.26 1021.32 1021.34 1021.19 1021.14 1021.18 1021.18 1021.34 1021.30 1021.31 1021.25 1021.30 1021.14 1020.96
1018.38 1019.08 1019.73 1020.11 1020.54 1020.82 1020.94 1021.14 1021.23 1021.45 1021.66 1021.76 1022.15 1022.24 1022.38 1022.46 1022.56 1022.58 1022.67 1022.62 1022.64 1022.64 1022.81 1022.77 1022.66 1022.39 1022.40 1022.48 1021.99 1021.73 1021.11 1021.06 1020.92 1021.02 1021.05 1021.03 1021.09 1021.06 1021.02 1021.13 1021.18 1021.13 1020.94
1018.02 1018.68 1019.39 1019.90 1020.33 1020.72 1020.91 1021.13 1021.38 1021.51 1021.67 1021.94 1022.06 1022.07 1022.26 1022.26 1022.36 1022.62 1022.67 1022.63 1022.78 1022.78 1022.80 1022.86 1022.73 1022.72 1022.35 1022.62 1022.59 1022.18 1021.43 1021.27 1021.32 1021.08 1021.08 1021.06 1021.14 1020.87 1020.94 1020.98 1020.91 1020.88 1020.78
1017.62 1018.37 1019.14 1019.76 1020.21 1020.67 1020.81 1020.99 1021.08 1021.12 1021.42 1021.52 1021.80 1022.15 1022.07 1022.03 1022.23 1022.30 1022.52 1022.77 1022.96 1022.88 1022.98 1022.86 1022.62 1022.83 1022.64 1022.46 1022.54 1022.59 1022.60 1022.41 1021.59 1020.88 1020.96 1021.00 1021.01 1020.83 1021.00 1020.81 1020.63 1020.57 1020.62
1017.47 1018.01 1018.80 1019.57 1020.15 1020.61 1020.92 1020.98 1021.06 1021.15 1021.35 1021.62 1021.87 1021.94 1022.13 1021.99 1022.08 1022.22 1022.51 1022.72 1022.84 1022.78 1023.02 1022.97 1022.98 1022.70 1022.86 1022.71 1022.61 1022.52 1022.54 1022.37 1022.31 1021.72 1020.96 1020.88 1020.78 1020.95 1020.84 1020.76 1020.69 1020.55 1020.50
1017.34 1017.91 1018.58 1019.29 1019.90 1020.49 1020.90 1021.08 1021.06 1021.04 1021.32 1021.53 1021.62 1021.57 1021.71 1021.75 1021.67 1021.91 1022.15 1022.45 1022.64 1022.73 1022.89 1022.82 1022.96 1022.98 1022.96 1022.99 1022.89 1022.80 1022.53 1022.33 1022.14 1021.86 1021.46 1021.30 1021.10 1020.94 1020.94 1020.75 1020.77 1020.64 1020.38
Wind_Speed
8 9 8 10 8 7 9 9 10 11 12 13 11 12 12 13 13 13 14 15 16 15 15 15 15 15 16 15 15 15 14 15 15 17 17 16 15 15 15 13 12 15 15
12 9 10 10 9 8 9 9 9 9 11 12 10 11 11 12 13 13 14 14 15 16 15 14 15 16 16 16 15 16 15 15 16 16 15 16 16 15 16 15 15 14 15
13 10 9 8 9 9 9 9 8 7 9 9 10 11 11 11 12 13 13 13 13 14 15 15 16 15 15 15 15 14 13 15 14 14 11 10 12 15 17 15 14 14 14
12 10 10 9 10 9 8 8 6 8 8 8 9 10 10 10 11 11 14 14 13 13 14 14 13 14 14 13 13 12 13 13 13 10 9 10 11 15 14 13 14 15 14
12 10 11 10 10 9 9 8 8 7 9 8 8 9 10 11 12 12 14 15 14 13 12 11 10 9 12 11 13 12 11 11 11 10 9 8 9 12 13 12 13 13 13
12 10 11 10 10 8 9 9 9 9 9 9 8 9 9 12 13 14 13 14 13 12 12 11 10 9 8 7 6 10 11 10 8 8 8 9 10 12 12 12 12 11 14
11 10 10 9 8 9 9 9 10 10 8 9 8 8 9 13 13 13 14 14 13 12 12 11 12 12 11 11 11 10 10 9 7 7 7 8 10 12 11 11 11 11 11
11 10 9 9 9 9 10 10 9 10 9 9 9 8 10 13 13 13 15 13 12 11 11 12 12 10 9 9 9 9 8 7 6 6 7 6 8 10 10 10 9 9 9
10 10 9 9 10 10 10 10 11 11 9 9 9 8 11 13 12 13 14 13 12 11 11 10 9 9 7 8 9 7 8 7 5 4 5 5 7 9 9 9 9 10 11
9 9 9 9 9 7 8 9 11 10 10 9 10 9 12 13 13 13 12 11 10 10 9 7 6 7 8 8 7 8 8 5 6 5 4 6 8 8 8 7 7 8 8
8 7 7 8 7 8 8 8 10 11 12 11 11 11 10 8 10 12 11 11 9 8 6 5 4 6 7 7 5 6 3 3 4 3 3 5 5 6 6 6 6 6 5
10 8 6 7 7 7 7 7 7 7 7 6 7 7 7 8 8 9 11 12 11 9 7 6 5 5 2 1 2 4 2 4 2 3 3 3 3 4 5 5 5 5 5
10 7 8 7 6 7 6 5 4 4 4 5 7 6 6 6 6 5 5 5 4 6 3 3 2 2 4 3 2 2 2 2 2 2 4 3 4 4 4 5 4 5 5
11 10 9 8 6 6 5 5 6 5 5 5 5 5 4 4 5 4 4 4 4 3 4 3 3 4 4 4 5 2 2 2 2 2 3 2 3 5 5 5 5 6 7
10 9 9 8 7 6 6 5 5 5 4 4 4 4 3 4 4 3 4 4 3 3 3 3 3 4 3 3 2 1 1 1 2 1 2 1 3 4 5 6 7 7 8
9 9 9 9 7 7 6 6 4 4 4 3 4 4 4 3 3 3 3 4 3 2 2 2 3 4 4 4 5 4 1 1 1 1 1 1 2 4 5 6 7 8 9
9 9 9 9 8 7 6 5 4 3 4 4 4 5 3 2 4 3 4 3 4 2 2 1 2 3 3 3 3 1 1 2 1 1 1 2 1 4 4 5 6 8 9
9 10 9 8 9 8 6 4 3 3 4 4 4 4 3 3 2 3 2 3 3 2 3 3 3 3 2 3 2 2 2 2 2 2 2 2 1 2 3 3 6 7 9
11 10 10 9 8 8 6 4 3 3 3 3 3 3 3 3 4 1 2 3 3 3 3 3 3 3 3 2 2 1 2 3 3 1 2 2 2 3 3 1 6 9 9
11 10 10 8 7 7 5 4 3 3 3 3 3 3 4 3 2 1 3 3 2 2 3 3 3 2 3 4 4 3 2 2 2 2 2 2 2 3 3 4 5 4 5
12 12 11 10 8 6 6 5 3 4 3 3 3 4 3 2 2 1 3 2 2 3 4 3 2 3 3 5 3 2 1 1 1 1 1 2 2 3 4 4 4 4 4
14 13 12 11 9 8 7 4 2 4 3 2 3 3 4 4 3 1 3 2 3 3 4 3 4 1 3 5 3 1 3 3 3 3 2 2 3 3 3 4 5 4 4
14 14 12 11 9 8 8 5 4 5 4 3 3 3 3 4 3 2 3 2 2 2 2 2 3 3 3 3 5 3 0 3 3 2 3 3 3 3 3 4 5 5 5
15 13 12 10 9 8 9 7 8 6 4 3 4 4 4 4 5 4 4 4 2 1 2 2 2 3 3 4 2 4 4 4 3 1 2 2 3 3 4 4 4 5 6
15 14 12 11 9 8 9 8 7 6 4 4 3 6 4 4 5 6 5 5 4 3 2 1 1 3 3 4 5 1 1 2 3 3 3 4 3 3 3 3 3 4 5
14 13 13 13 11 10 9 10 9 9 7 5 6 5 4 3 3 4 5 4 3 3 3 3 2 2 3 3 3 3 4 3 4 3 2 2 4 3 4 4 3 3 3
Wind_Direction
174 165 179 168 158 114 104 90 83 82 84 83 85 89 89 88 87 82 91 94 94 94 96 94 94 97 88 91 92 91 88 86 87 86 83 82 82 82 77 78 90 84 82
145 154 157 152 142 120 109 88 77 79 87 84 89 85 91 93 90 88 90 97 94 96 97 100 91 88 88 89 90 87 75 73 75 81 80 84 77 83 79 73 68 77 77
139 143 146 142 128 105 88 87 99 94 103 102 96 91 88 91 96 98 103 99 97 103 94 90 91 89 90 86 81 83 87 77 73 75 79 81 74 75 70 74 73 79 75
135 139 129 115 109 107 106 106 119 109 105 102 100 97 97 101 104 106 107 101 101 96 95 94 93 94 89 90 87 87 80 78 71 66 69 73 74 68 73 75 69 68 78
127 129 120 122 123 127 130 127 109 116 107 104 108 107 106 106 107 106 109 104 104 100 96 89 86 90 94 88 81 82 83 78 72 73 74 62 76 75 73 69 78 72 55
129 128 126 130 132 131 141 123 121 106 110 108 116 113 119 108 114 106 107 106 105 101 90 84 79 95 105 96 79 81 79 78 73 74 74 76 67 83 73 71 73 63 60
127 129 128 126 118 111 116 129 121 119 119 110 114 116 114 103 98 103 107 107 111 97 85 78 85 82 83 85 92 83 86 79 76 73 79 72 73 68 73 71 71 65 60
130 128 118 118 111 107 107 115 120 117 113 113 107 112 109 105 100 99 110 110 108 97 84 88 83 74 87 94 93 94 96 78 78 75 73 63 82 74 73 70 60 67 63
127 126 124 115 114 105 109 104 98 107 106 111 103 98 99 103 96 89 94 102 103 101 89 83 68 62 83 98 99 97 93 92 83 65 75 70 70 74 68 60 49 43 42
130 123 118 117 112 106 108 98 97 100 100 89 95 82 94 97 96 90 101 94 101 98 94 83 69 58 77 110 97 105 102 107 70 76 76 58 56 65 62 56 50 47 40
131 127 115 117 112 109 108 95 107 100 87 86 83 81 93 92 91 94 85 99 99 97 98 90 66 56 69 118 113 122 127 62 63 66 62 42 29 51 53 47 39 35 22
147 137 133 124 121 107 106 99 91 97 88 88 87 86 97 95 83 78 83 84 73 64 59 42 46 51 346 38 85 139 42 60 36 48 55 2 357 31 43 30 20 6 356
154 151 146 129 127 114 111 109 108 108 112 99 95 91 91 95 91 89 99 92 71 55 43 33 3 344 329 312 342 3 15 354 34 36 63 339 23 356 7 6 339 330 338
162 154 144 137 139 124 128 120 117 120 121 119 97 99 106 107 97 90 71 74 70 52 46 25 3 343 325 296 285 299 353 359 29 37 73 314 332 344 337 335 327 321 324
166 157 151 148 148 141 134 131 128 125 130 120 120 105 108 109 98 91 78 77 56 53 38 20 351 12 10 25 57 84 143 83 37 25 25 47 321 309 316 322 321 320 319
167 162 154 155 151 151 142 142 137 140 128 130 124 119 114 106 95 70 82 77 77 73 66 23 351 12 34 55 77 79 93 143 58 4 38 81 275 296 297 305 312 316 318
169 162 162 157 155 161 152 155 154 159 141 152 128 138 115 126 103 86 82 71 71 73 94 87 67 62 55 65 60 41 340 302 324 307 310 339 108 209 280 293 305 306 308
161 169 166 164 161 164 152 162 146 131 133 134 151 162 182 176 141 107 96 72 56 51 27 46 37 69 56 21 10 348 322 292 293 276 284 293 306 326 196 237 291 298 299
171 170 176 172 172 167 156 157 157 130 137 144 161 150 122 138 135 92 102 80 42 86 48 27 50 9 17 23 341 324 296 293 279 295 309 294 311 303 335 83 277 288 293
178 179 182 184 181 169 155 149 142 148 128 139 144 160 145 146 156 144 112 78 40 116 93 61 30 30 13 355 330 4 336 327 281 273 290 294 354 311 315 321 320 335 294
182 184 189 184 184 178 171 171 167 175 156 149 157 171 159 164 164 316 123 113 82 76 51 43 23 34 40 6 313 81 87 4 65 38 337 304 317 312 323 325 310 332 326
187 192 190 195 193 203 194 173 170 171 173 166 167 180 172 189 179 170 123 139 95 86 64 47 37 34 46 25 13 321 32 132 46 36 27 358 352 309 318 327 326 317 310
194 192 196 193 195 199 186 155 131 133 131 171 177 202 197 180 189 209 116 100 105 112 92 35 34 27 65 68 36 354 61 33 331 42 36 32 1 351 339 326 333 339 328
198 192 193 194 190 189 178 178 174 172 164 178 176 199 196 193 190 194 174 177 182 176 111 56 56 43 13 51 104 66 49 17 5 46 90 23 340 356 359 332 349 3 353
190 190 188 190 190 193 188 195 179 167 159 154 170 196 195 175 199 178 170 171 191 192 158 166 177 93 75 41 42 54 63 57 54 356 36 28 94 40 11 347 1 3 4
186 188 186 189 198 198 198 201 200 181 174 181 186 187 193 191 187 187 166 173 202 191 185 179 156 107 83 79 44 24 30 27 33 14 5 4 352 30 12 25 6 359 21